[[{"header":{"parameterUnit":"m.s-1","parameterCategory":1,"la1":30.2991,"la2":30.254,"lo1":-89.0895,"lo2":-89.0444,"dy":0.0017,"dx":0.0017,"nx":28,"ny":28,"refTime":"2024-04-28T09:00:00:Z","depth":0,"parameterNumber":2,"parameterNumberName":"U-component_of_WINDS"},"data":[0,0,0,0,0,0,0,0,0,0,0,0,0,0,0,0,0,0,0,0,0,0,0,0,0,0,0,0,0,0,0,0,0,0,0,0,0,0,0,0,0,0,0,0,0,0,0,0,0,0,0,0,0,0,0,0,0,0,-3.2017,-3.2017,0,-3.205,-3.2051,-3.2051,-3.2053,-3.2053,-3.2053,-3.2052,-3.2087,-3.2088,-3.2089,0,0,0,0,0,0,0,0,0,0,0,0,0,-3.1956,-3.1957,-3.2017,-3.2017,-3.2018,-3.205,-3.2051,-3.2051,-3.2054,-3.2053,-3.2053,-3.2052,-3.2086,-3.2088,-3.2089,0,0,0,0,0,0,0,0,0,0,0,0,0,-3.1985,-3.1958,-3.2017,-3.2023,-3.2024,-3.205,-3.2051,-3.2051,-3.2054,-3.2053,-3.2053,-3.2052,-3.2086,-3.2088,-3.2089,-3.2112,0,0,-3.2095,-3.2096,0,0,0,0,0,0,0,0,-3.1984,-3.1988,-3.2022,-3.2022,-3.2023,-3.2047,-3.2042,-3.2072,-3.2054,-3.2042,-3.2052,-3.2052,-3.2074,-3.2077,-3.2084,-3.2114,-3.2115,-3.2095,-3.2097,-3.2097,-3.2098,0,0,0,0,0,0,0,-3.1982,-3.1986,-3.203,-3.2022,-3.2023,-3.2024,-3.2028,-3.2048,-3.2061,-3.2043,-3.2043,-3.2047,-3.2074,-3.2082,-3.2085,-3.2116,-3.2095,-3.2097,-3.2098,-3.2099,-3.2167,-3.2168,0,0,0,0,0,0,-3.1978,-3.1984,-3.2029,-3.2031,-3.2002,-3.2026,-3.203,-3.204,-3.2061,-3.2063,-3.2048,-3.2047,-3.208,-3.2083,-3.2086,-3.2115,-3.2097,-3.2099,-3.21,-3.2167,-3.2168,-3.2168,0,0,0,0,0,0,-3.1977,-3.1982,-3.2028,-3.2008,-3.2014,-3.2027,-3.2039,-3.2041,-3.2049,-3.2064,-3.2067,-3.2054,-3.2079,-3.2084,-3.2106,-3.2116,-3.21,-3.2102,-3.2166,-3.2167,-3.2168,-3.2171,0,0,0,0,0,0,-3.1975,-3.1982,-3.199,-3.2008,-3.2015,-3.2046,-3.204,-3.2042,-3.2052,-3.2052,-3.207,-3.2073,-3.2079,-3.2103,-3.2108,-3.2118,-3.2103,-3.2165,-3.2166,-3.2168,-3.217,-3.2173,-3.2174,0,0,0,0,0,-3.1973,-3.199,-3.1991,-3.1996,-3.2026,-3.2047,-3.2051,-3.2058,-3.2053,-3.2062,-3.2072,-3.2072,-3.2115,-3.2106,-3.2111,-3.2122,-3.2164,-3.2166,-3.2168,-3.217,-3.2172,-3.2174,0,0,0,0,0,0,-3.1972,-3.1992,-3.1993,-3.2016,-3.203,-3.2047,-3.2058,-3.206,-3.2076,-3.2075,-3.2083,-3.2087,-3.211,-3.2118,-3.2108,-3.2146,-3.2139,-3.2142,-3.2139,-3.2141,-3.2143,-3.214,-3.2105,0,0,0,0,0,-3.1974,-3.199,-3.2007,-3.2025,-3.2032,-3.2044,-3.2054,-3.2059,-3.2073,-3.2079,-3.209,-3.2105,-3.2122,-3.2132,-3.2148,-3.2173,-3.2177,-3.2183,-3.2185,-3.2186,-3.2188,-3.2202,-3.2205,-3.2173,-3.2173,-3.2173,0,0,-3.1979,-3.1992,-3.2001,-3.2025,-3.2037,-3.2053,-3.2049,-3.2066,-3.2078,-3.2081,-3.2103,-3.2113,-3.2129,-3.2153,-3.2164,-3.2161,-3.2198,-3.2188,-3.2189,-3.219,-3.2204,-3.2207,-3.221,-3.2174,-3.2174,-3.2174,0,0,-3.1997,-3.2008,-3.2025,-3.2037,-3.2054,-3.2062,-3.2066,-3.2084,-3.2091,-3.2113,-3.2116,-3.2131,-3.2159,-3.2171,-3.2181,-3.2206,-3.2206,-3.2211,-3.222,-3.2234,-3.2236,-3.2238,-3.2247,-3.225,-3.2213,-3.2213,-3.2213,0,-3.2,-3.2025,-3.2033,-3.2051,-3.2061,-3.2066,-3.2083,-3.2094,-3.2116,-3.2124,-3.212,-3.2157,-3.2169,-3.2195,-3.2202,-3.221,-3.2215,-3.2208,-3.2235,-3.2237,-3.224,-3.2248,-3.2251,-3.2213,-3.2213,-3.2213,-3.2213,0,-3.2029,-3.2046,-3.2057,-3.2078,-3.2091,-3.2108,-3.212,-3.2131,-3.2136,-3.2145,-3.2168,-3.2183,-3.2202,-3.2209,-3.2213,-3.2237,-3.2235,-3.2233,-3.2226,-3.2243,-3.2251,-3.2254,-3.2214,-3.2214,-3.2214,-3.2214,0,0,-3.2044,-3.2071,-3.2075,-3.2085,-3.2106,-3.2119,-3.2138,-3.2157,-3.2167,-3.2182,-3.2198,-3.2223,-3.2222,-3.2234,-3.224,-3.2252,-3.227,-3.2249,-3.225,-3.2252,-3.2298,-3.2298,-3.2301,-3.2272,-3.2273,-3.2273,-3.2296,0,-3.2063,-3.2094,-3.2104,-3.2131,-3.2147,-3.2153,-3.2169,-3.2183,-3.2193,-3.2208,-3.2219,-3.2237,-3.2234,-3.2241,-3.2254,-3.2265,-3.2279,-3.2264,-3.2286,-3.2287,-3.228,-3.2305,-3.2305,-3.2326,-3.2299,-3.23,-3.23,0,-3.2088,-3.2105,-3.2133,-3.2153,-3.216,-3.2174,-3.2193,-3.2208,-3.2226,-3.2232,-3.2245,-3.2251,-3.2271,-3.2264,-3.2292,-3.2282,-3.2292,-3.2299,-3.23,-3.2301,-3.2293,-3.2306,-3.2332,-3.2335,-3.2305,-3.2305,-3.2304,0,-3.2096,-3.2126,-3.2147,-3.2155,-3.2179,-3.2189,-3.2199,-3.2216,-3.2227,-3.2245,-3.2252,-3.2272,-3.2282,-3.2297,-3.2308,-3.2303,-3.2335,-3.233,-3.2341,-3.2341,-3.2346,-3.2345,-3.2373,-3.2355,-3.2355,-3.2355,-3.2354,0,-3.2115,-3.2133,-3.215,-3.2163,-3.2183,-3.2194,-3.2214,-3.2225,-3.224,-3.2255,-3.2262,-3.2277,-3.2291,-3.2308,-3.2316,-3.2338,-3.2343,-3.2349,-3.2351,-3.2347,-3.2347,-3.2353,-3.2351,-3.2355,-3.2355,-3.2355,-3.2355,0,-3.2126,-3.2139,-3.2162,-3.2183,-3.2189,-3.2203,-3.2221,-3.2234,-3.2244,-3.2264,-3.2269,-3.2286,-3.2306,-3.2319,-3.2345,-3.2351,-3.2374,-3.2376,-3.2368,-3.2369,-3.2379,-3.2378,-3.2411,-3.2416,-3.2395,-3.2395,-3.2396,0,-3.2137,-3.2151,-3.2173,-3.2184,-3.2195,-3.2212,-3.2224,-3.2237,-3.2249,-3.2271,-3.2281,-3.2302,-3.2319,-3.2351,-3.2366,-3.2386,-3.2388,-3.2398,-3.2391,-3.2387,-3.2387,-3.2386,-3.2387,-3.2399,-3.2399,-3.2399,-3.2399,0,-3.2156,-3.2161,-3.2178,-3.2198,-3.2212,-3.2228,-3.2244,-3.2253,-3.2268,-3.2282,-3.2302,-3.2316,-3.2343,-3.2363,-3.2385,-3.2396,-3.24,-3.2402,-3.2405,-3.2401,-3.2396,-3.2399,-3.2371,-3.2401,-3.24,-3.24,-3.24,-3.24,-3.2167,-3.2179,-3.2197,-3.2216,-3.2229,-3.2245,-3.2258,-3.2271,-3.2288,-3.231,-3.2317,-3.2339,-3.2358,-3.2387,-3.2399,-3.2417,-3.2415,-3.242,-3.2422,-3.2422,-3.2422,-3.2394,-3.2421,-3.2421,-3.2421,-3.2421,-3.2421,0,-3.2185,-3.2197,-3.2214,-3.2236,-3.2252,-3.2255,-3.2273,-3.2286,-3.2305,-3.2322,-3.2339,-3.2363,-3.2383,-3.24,-3.2422,-3.2433,-3.2435,-3.2438,-3.2436,-3.2439,-3.2422,-3.2417,-3.2435,-3.2435,-3.2435,-3.2435,-3.2435,-3.2435,-3.2196,-3.2217,-3.2225,-3.2254,-3.2266,-3.2287,-3.2297,-3.2312,-3.2325,-3.2352,-3.2369,-3.238,-3.2397,-3.242,-3.2439,-3.2444,-3.2451,-3.2453,-3.2458,-3.2442,-3.244,-3.2438,-3.2433,-3.2455,-3.2455,-3.2473,-3.2473,-3.2473]},{"header":{"parameterUnit":"m.s-1","parameterCategory":1,"la1":30.2991,"la2":30.254,"lo1":-89.0895,"lo2":-89.0444,"dy":0.0017,"dx":0.0017,"nx":28,"ny":28,"refTime":"2024-04-28T09:00:00:Z","depth":0,"parameterNumber":3,"parameterNumberName":"V-component_of_WINDS"},"data":[0,0,0,0,0,0,0,0,0,0,0,0,0,0,0,0,0,0,0,0,0,0,0,0,0,0,0,0,0,0,0,0,0,0,0,0,0,0,0,0,0,0,0,0,0,0,0,0,0,0,0,0,0,0,0,0,0,0,5.9101,5.9101,0,5.9127,5.9127,5.9127,5.9096,5.9095,5.9094,5.9093,5.9115,5.9117,5.9119,0,0,0,0,0,0,0,0,0,0,0,0,0,5.9025,5.9026,5.9101,5.9101,5.9102,5.9126,5.9127,5.9127,5.9097,5.9095,5.9094,5.9093,5.9115,5.9117,5.9119,0,0,0,0,0,0,0,0,0,0,0,0,0,5.9055,5.9027,5.9101,5.909,5.9089,5.9126,5.9127,5.9127,5.9097,5.9095,5.9094,5.9092,5.9114,5.9117,5.9119,5.9168,0,0,5.9127,5.9128,0,0,0,0,0,0,0,0,5.9053,5.9058,5.9091,5.909,5.909,5.9107,5.9108,5.9141,5.9097,5.9094,5.9093,5.9091,5.9114,5.9116,5.9124,5.9169,5.917,5.9127,5.9128,5.9129,5.913,0,0,0,0,0,0,0,5.9051,5.9056,5.9111,5.9091,5.9091,5.9083,5.9085,5.9114,5.9113,5.9094,5.9092,5.9095,5.9113,5.9122,5.9125,5.917,5.9127,5.9129,5.913,5.9131,5.9259,5.9261,0,0,0,0,0,0,5.9051,5.9055,5.911,5.9112,5.9067,5.9086,5.9088,5.9103,5.9112,5.9112,5.9097,5.9094,5.9119,5.9122,5.9125,5.9185,5.9129,5.9132,5.9133,5.9257,5.9259,5.9262,0,0,0,0,0,0,5.9049,5.9056,5.9109,5.9083,5.9089,5.9089,5.9105,5.9104,5.9113,5.9115,5.9114,5.9107,5.9118,5.9122,5.9158,5.9185,5.9133,5.9135,5.9255,5.9258,5.9261,5.9303,0,0,0,0,0,0,5.9047,5.9056,5.9074,5.9084,5.9091,5.9142,5.9107,5.9106,5.9118,5.9115,5.9123,5.9123,5.9117,5.9155,5.9161,5.9187,5.9137,5.9252,5.9256,5.926,5.9299,5.9307,5.9313,0,0,0,0,0,5.9045,5.9083,5.9075,5.9082,5.9114,5.9144,5.9148,5.914,5.912,5.9139,5.9141,5.9123,5.9182,5.9159,5.9165,5.9193,5.9251,5.9255,5.9259,5.9296,5.9305,5.9313,0,0,0,0,0,0,5.9074,5.9084,5.9075,5.9118,5.9131,5.9139,5.9161,5.915,5.9167,5.9163,5.9152,5.9154,5.9194,5.9197,5.9172,5.9242,5.9213,5.9219,5.9238,5.9247,5.9254,5.9252,5.9139,0,0,0,0,0,5.9087,5.9111,5.9118,5.9155,5.9162,5.9161,5.9174,5.9168,5.9179,5.9184,5.9188,5.9199,5.922,5.9234,5.9253,5.93,5.9302,5.9322,5.933,5.9335,5.934,5.9367,5.9376,5.9276,5.9276,5.9276,0,0,5.9111,5.9119,5.9135,5.9162,5.917,5.9196,5.9166,5.9193,5.9212,5.9187,5.9223,5.9227,5.9239,5.9281,5.93,5.9285,5.9369,5.9341,5.9346,5.9347,5.9372,5.9382,5.9391,5.9279,5.9278,5.9278,0,0,5.9168,5.9177,5.921,5.9221,5.9236,5.9235,5.9244,5.9254,5.9256,5.9292,5.9276,5.9298,5.9334,5.9344,5.9354,5.942,5.9405,5.9426,5.9463,5.9489,5.9497,5.9504,5.9529,5.9537,5.9431,5.9431,5.9431,0,5.9195,5.9234,5.9228,5.9258,5.9271,5.9254,5.9288,5.9298,5.9317,5.9327,5.931,5.9358,5.9364,5.941,5.9427,5.9435,5.9444,5.9424,5.9497,5.9504,5.951,5.9533,5.9542,5.9434,5.9434,5.9433,5.9433,0,5.9268,5.9295,5.932,5.9343,5.9359,5.939,5.939,5.9406,5.94,5.9402,5.944,5.9448,5.947,5.948,5.9473,5.9526,5.9516,5.9499,5.9469,5.9523,5.9544,5.9553,5.9438,5.9437,5.9436,5.9435,0,0,5.934,5.9363,5.9373,5.9384,5.9401,5.9422,5.9454,5.9477,5.9492,5.9508,5.9534,5.9567,5.9553,5.9564,5.9558,5.9581,5.9635,5.9561,5.9561,5.9575,5.9695,5.9707,5.9718,5.9626,5.9627,5.9629,5.9694,0,5.9399,5.9455,5.9453,5.9506,5.9532,5.9518,5.9546,5.956,5.9563,5.9585,5.9588,5.9612,5.959,5.9597,5.962,5.9623,5.9658,5.9619,5.965,5.9651,5.9647,5.9729,5.9742,5.9802,5.9702,5.9703,5.9704,0,5.9473,5.9494,5.955,5.9567,5.9578,5.9603,5.9626,5.9648,5.9664,5.9665,5.968,5.9671,5.9703,5.9674,5.9719,5.9692,5.9705,5.9709,5.9712,5.9713,5.968,5.9733,5.9822,5.9831,5.9717,5.9716,5.9715,0,5.9521,5.9564,5.9604,5.9614,5.9634,5.9653,5.9662,5.9676,5.9692,5.9712,5.9722,5.9744,5.9757,5.9775,5.9773,5.9751,5.9819,5.9789,5.982,5.9821,5.9834,5.9833,5.9926,5.9843,5.9843,5.9843,5.9843,0,5.9586,5.9621,5.9626,5.9651,5.969,5.9688,5.9727,5.9734,5.9748,5.9773,5.9762,5.9786,5.9782,5.9806,5.9805,5.9843,5.9849,5.985,5.9849,5.9851,5.9851,5.9858,5.9854,5.9845,5.9845,5.9844,5.9844,0,5.9646,5.9651,5.9694,5.9711,5.9717,5.9745,5.9759,5.9783,5.9787,5.9819,5.9827,5.9833,5.9861,5.9861,5.9892,5.9892,5.9939,5.9933,5.9934,5.9933,5.9964,5.9961,6.0065,6.0079,5.9987,5.9988,5.9989,0,5.9686,5.9713,5.9735,5.9753,5.9764,5.9792,5.9809,5.9809,5.9826,5.9849,5.987,5.9898,5.992,5.9965,5.9971,5.9996,5.9991,6.0026,5.9994,5.9996,5.9992,5.999,5.9993,6.0031,6.0032,6.0033,6.0034,0,5.9758,5.976,5.9786,5.9814,5.9835,5.9856,5.9876,5.989,5.9893,5.9913,5.9943,5.9961,5.9995,6.0023,6.0048,6.0056,6.0045,6.0044,6.0053,6.0054,6.0054,6.0055,5.995,6.0041,6.004,6.004,6.004,6.0039,5.9809,5.9834,5.9855,5.9884,5.99,5.992,5.9944,5.9952,5.9978,6.0007,6.0006,6.0039,6.0057,6.0089,6.0101,6.0126,6.0114,6.0126,6.0129,6.0132,6.0136,6.0051,6.0131,6.0131,6.013,6.013,6.013,0,5.9881,5.9895,5.9922,5.9952,5.9976,5.9968,5.999,6.001,6.004,6.0059,6.0082,6.0118,6.0146,6.0156,6.0183,6.0202,6.0198,6.0209,6.0207,6.021,6.0145,6.0135,6.0212,6.0212,6.0212,6.0212,6.0212,6.0212,5.9921,5.9963,5.9969,6.0019,6.0032,6.0067,6.0081,6.0099,6.0114,6.0155,6.018,6.0187,6.0203,6.0231,6.0257,6.0259,6.0269,6.0283,6.0283,6.0222,6.0214,6.0206,6.0197,6.0285,6.0285,6.0345,6.0346,6.0346]}]]